Wind_Speed
12 9 9 9 9 8 7 7 7 7 7 6 7 7 9 11 11 9 6 10 8 20 11 11 12 17 19 8 9 3 3 3 5 6 6 10 17 13 15 4 8 7 11 7 6
12 9 8 9 9 8 7 6 6 6 5 6 6 7 8 10 12 11 13 13 4 10 11 11 8 11 6 7 4 2 2 3 4 5 7 11 11 10 13 13 6 7 7 10 6
11 9 8 8 8 7 6 5 5 4 4 5 6 6 6 9 4 4 9 16 16 11 13 14 19 4 8 6 8 7 6 6 7 3 5 11 16 9 10 9 7 6 5 5 9
11 9 8 8 8 7 5 5 4 4 3 4 5 5 7 4 4 3 8 14 14 12 9 8 8 6 6 9 10 7 10 10 10 5 5 14 9 7 7 9 5 7 7 6 9
11 10 9 8 8 6 5 4 3 2 2 3 4 6 4 3 8 5 5 7 8 8 10 8 10 7 7 6 7 7 10 11 10 7 8 5 7 9 7 9 10 4 4 7 2
11 9 9 9 7 5 4 2 1 1 2 3 5 6 2 4 9 4 3 8 9 11 11 15 9 11 9 9 8 11 11 10 9 11 3 1 9 3 9 5 8 8 4 6 3
11 10 10 9 8 5 3 1 1 2 3 4 5 4 4 11 4 3 6 15 13 18 12 23 27 4 7 7 9 7 4 6 5 7 7 4 11 9 8 9 8 3 4 4 6
11 10 10 10 8 6 5 5 4 5 5 6 5 1 6 7 4 8 10 13 7 10 13 12 17 5 3 8 9 7 4 2 7 9 10 13 11 11 10 10 9 5 2 6 8
11 10 10 11 9 8 8 8 9 9 9 8 5 3 7 4 5 8 7 8 11 9 7 8 8 3 8 6 6 5 6 9 17 16 11 10 4 12 8 8 7 6 5 5 3
13 10 10 11 11 10 11 13 13 13 7 5 9 5 7 3 4 2 3 6 7 6 4 3 1 2 5 1 6 8 8 9 14 19 16 8 6 5 4 7 8 6 5 1 10
14 11 10 11 12 13 14 8 4 1 5 8 5 5 5 7 4 10 10 9 9 6 5 7 3 7 12 12 15 15 12 7 3 4 7 8 2 6 9 4 8 8 6 13 12
15 13 11 11 13 16 15 4 10 10 7 15 16 6 6 6 6 5 3 5 7 8 8 5 9 13 12 9 1 3 5 8 4 9 6 4 8 9 8 8 6 9 7 14 11
16 14 12 13 15 18 14 14 14 12 3 7 10 9 4 9 2 3 5 8 9 8 10 10 5 5 3 6 4 4 3 7 5 4 3 2 6 10 9 8 8 8 11 13 14
20 14 14 14 11 12 15 16 10 9 2 5 4 3 3 5 4 1 5 5 6 5 7 1 4 4 6 5 5 1 7 9 10 8 2 4 5 8 5 8 10 9 10 12 13
25 14 13 14 17 8 12 9 10 4 3 10 5 6 2 4 6 3 2 6 6 7 4 4 9 9 7 7 9 3 7 5 5 6 6 10 2 8 7 9 9 9 9 9 10
27 15 14 11 11 19 18 11 3 2 4 4 6 7 8 7 5 5 6 4 3 4 7 4 3 5 5 7 1 5 5 7 6 3 3 15 8 6 3 9 7 5 9 9 17
29 14 13 11 6 14 13 2 2 3 6 5 6 4 8 5 4 4 4 7 5 5 7 8 6 6 3 6 7 4 6 4 5 1 5 11 5 9 18 22 18 20 16 13 13
30 14 12 16 14 18 12 3 4 8 10 4 4 2 2 4 1 6 3 7 10 8 4 5 2 3 8 4 2 6 4 3 2 2 4 8 6 4 14 16 15 12 9 9 8
29 10 9 15 12 6 3 2 4 3 11 7 7 4 6 7 1 1 2 7 4 7 4 6 5 4 7 3 3 6 4 3 2 5 5 3 4 8 9 8 10 9 8 7 9
25 7 15 15 9 3 1 5 5 6 6 7 4 7 7 6 0 3 5 7 4 8 6 4 4 5 5 0 5 3 3 5 4 0 3 4 7 5 13 13 13 9 12 11 9
9 3 2 12 6 2 3 6 6 9 6 5 7 6 7 6 5 5 7 10 10 9 8 7 4 8 8 5 5 4 3 4 2 2 2 2 5 6 7 4 6 11 9 12 16
10 3 11 8 2 3 5 5 4 7 2 5 2 5 6 6 5 7 7 6 6 6 4 5 0 3 7 11 2 4 2 2 4 4 1 5 5 7 13 15 15 17 15 12 10
5 4 8 8 2 3 6 5 6 5 5 6 3 3 5 4 4 6 7 7 5 5 3 4 3 3 9 5 7 5 6 4 2 3 4 4 5 5 15 17 15 16 15 15 16
3 3 3 1 2 4 4 2 6 2 4 3 5 3 3 3 1 2 5 5 7 5 7 4 1 3 4 7 4 7 9 8 2 3 4 5 4 14 15 15 16 17 15 14 13
3 4 4 4 5 7 5 7 5 5 4 4 3 4 6 5 6 5 8 5 8 7 5 3 1 5 8 12 11 12 12 10 4 4 2 4 10 10 11 13 12 13 15 15 15
4 4 5 5 6 6 1 1 11 7 5 6 5 9 6 4 5 6 7 6 6 4 2 3 2 6 5 12 8 12 13 8 8 10 9 9 7 10 7 8 12 14 12 13 16
13 9 2 6 6 2 3 7 8 4 5 8 8 6 9 8 7 6 3 1 3 2 3 3 3 3 3 11 12 4 11 8 5 13 6 7 5 12 15 18 17 15 12 15 20
Wind_Direction
339 337 332 334 331 326 316 309 303 292 286 291 297 300 303 307 301 291 250 234 269 259 295 285 283 259 262 263 266 287 19 336 325 351 296 320 341 350 339 51 90 100 120 143 115
348 343 337 336 333 327 320 312 305 294 283 283 289 294 309 324 315 261 237 254 276 227 265 276 266 256 248 267 263 187 182 205 245 293 351 327 310 338 349 346 34 86 84 119 141
357 351 346 342 341 338 333 325 315 301 286 284 288 306 331 333 283 248 216 231 238 244 259 281 295 269 261 238 236 239 225 229 246 280 77 296 291 338 356 344 32 37 49 74 58
4 1 356 350 346 340 334 328 322 313 302 299 309 331 337 341 20 224 203 215 231 240 250 272 276 262 239 237 247 198 236 244 250 190 193 218 300 328 324 295 39 59 88 55 12
11 7 2 356 347 339 330 329 321 314 307 314 330 336 339 236 246 251 198 213 222 221 233 241 274 271 263 262 258 234 220 218 239 255 192 249 279 270 276 299 323 28 69 110 40
13 15 12 5 357 349 342 346 10 7 314 323 325 335 297 261 159 114 203 217 212 208 242 247 249 248 253 257 252 260 281 188 209 236 213 239 260 309 288 291 296 329 52 34 1
17 19 18 14 10 6 352 343 319 307 309 309 328 344 269 253 153 136 264 230 240 215 230 242 246 280 286 278 270 272 317 298 210 189 219 256 305 280 268 247 211 118 63 22 332
17 14 12 10 2 346 330 320 314 305 297 302 311 351 254 238 214 231 249 261 261 287 270 343 1 354 324 318 330 306 9 315 254 241 229 162 230 269 277 271 147 155 300 267 253
13 5 358 355 346 334 324 316 308 303 296 297 304 208 273 164 197 237 302 293 244 242 279 325 3 333 330 311 324 317 242 257 269 237 228 158 155 254 245 135 163 199 227 262 320
7 354 346 342 334 327 315 312 299 295 300 263 265 299 265 162 143 312 253 298 313 306 266 191 262 225 303 270 233 247 249 256 256 262 207 144 195 278 260 171 190 180 207 207 95
2 349 335 329 325 324 326 327 313 304 229 221 239 225 163 123 168 217 210 200 235 267 251 238 180 230 232 229 234 245 275 279 321 97 99 160 183 272 287 191 202 198 194 111 106
352 347 330 315 313 312 311 259 275 285 299 229 260 278 333 291 215 134 157 234 195 231 233 273 225 236 240 219 345 307 326 313 351 44 60 62 273 247 245 256 175 152 128 111 98
344 337 332 320 308 299 280 261 301 323 319 281 213 221 191 236 5 82 193 244 253 239 240 214 322 185 346 328 282 295 355 5 11 20 15 269 287 284 272 214 108 96 100 105 107
344 326 321 320 310 310 285 279 310 18 326 203 181 176 201 232 145 258 316 275 301 303 342 96 109 37 329 272 350 323 25 15 357 11 298 51 280 288 295 97 104 98 97 115 118
347 317 310 309 300 306 298 327 337 354 307 164 173 144 296 242 148 141 242 314 307 338 19 321 31 4 32 27 10 105 39 342 304 307 356 290 4 264 133 116 112 128 130 125 140
346 319 302 310 288 272 303 312 331 1 262 132 140 189 211 209 149 153 197 210 279 317 296 263 107 42 8 335 40 320 341 318 264 170 301 261 179 311 125 142 131 126 106 82 83
344 316 279 274 252 328 325 331 352 231 251 168 170 172 230 154 143 50 350 54 60 16 349 303 139 110 354 343 26 1 45 333 356 91 208 334 47 21 59 69 78 76 75 75 76
343 313 258 263 271 303 326 359 255 285 300 81 3 360 289 75 59 100 307 82 36 26 326 342 117 78 6 61 332 307 109 122 320 38 276 314 37 41 65 85 86 80 86 75 68
342 336 268 260 257 279 34 258 230 275 1 10 330 231 216 115 103 119 118 89 76 64 28 6 347 43 82 17 50 325 62 273 9 328 45 117 63 33 44 72 57 58 64 78 59
337 305 264 251 183 161 54 261 300 50 8 349 320 21 20 94 156 314 88 27 81 64 41 329 342 324 128 343 249 192 281 25 358 146 289 319 57 112 40 48 29 11 57 44 41
335 303 140 156 138 78 223 249 107 85 22 356 1 2 19 24 24 334 82 45 35 26 7 359 52 307 342 69 50 15 20 12 95 91 159 341 283 92 43 31 75 73 63 43 44
331 294 170 168 85 206 238 270 273 92 178 71 344 10 22 24 359 353 80 76 45 15 52 321 80 295 269 290 110 72 10 86 112 305 181 164 267 357 6 57 49 43 44 39 37
307 261 232 191 229 281 289 146 49 44 79 20 23 66 65 342 54 345 93 101 74 65 79 332 343 358 341 10 21 14 331 357 64 106 205 154 264 345 49 48 40 37 25 17 13
290 307 339 61 284 316 344 248 121 50 72 1 2 60 287 330 16 238 99 143 115 113 139 101 295 188 201 267 322 325 325 325 354 112 233 227 284 39 35 31 22 20 10 2 1
232 319 0 342 350 341 19 343 94 118 18 96 296 216 109 27 4 334 15 136 84 147 138 110 282 347 332 328 321 303 291 283 282 271 81 330 79 47 40 31 14 359 348 353 358
19 2 341 283 295 300 350 42 51 44 23 53 21 17 40 68 40 27 18 36 61 215 117 156 264 353 322 293 350 330 326 342 38 31 39 27 91 28 47 27 3 348 353 356 349
358 330 264 277 305 314 35 34 67 41 70 68 35 13 56 23 352 333 339 305 296 333 350 47 40 30 279 342 327 13 328 342 30 50 52 50 1 7 11 4 349 338 360 347 330
Height
793 792 791 790 789 787 786 786 785 784 784 783 783 782 781 781 780 779 776 771 770 769 769 768 767 767 766 765 762 758 797 807 795 791 787 763 770 745 739 740 739 737 743 743 744
791 791 790 788 787 786 785 784 784 783 783 783 782 781 781 780 778 775 768 769 769 769 769 769 767 765 770 767 765 772 798 792 777 775 777 769 772 762 758 756 752 749 744 745 746
790 790 789 787 786 785 784 783 783 783 782 782 782 781 781 781 779 765 763 766 768 768 768 768 767 767 774 765 768 772 788 771 769 764 764 772 772 759 766 771 763 762 753 749 749
790 789 788 787 786 785 783 783 782 782 782 782 782 782 781 781 788 764 763 764 765 767 768 768 765 771 775 778 763 778 767 763 763 758 765 772 758 766 763 759 755 754 752 753 754
791 789 788 787 785 784 783 782 782 782 782 782 782 782 782 782 774 763 763 764 764 766 767 768 769 767 776 767 764 770 763 758 752 755 760 760 766 765 762 751 745 751 752 754 755
791 790 789 787 786 784 783 782 782 783 783 783 783 782 782 785 762 762 762 763 763 764 764 764 763 757 764 765 769 756 752 751 751 754 756 765 768 762 755 750 750 752 754 752 754
792 791 789 788 786 785 784 783 783 783 783 783 783 782 781 775 761 761 761 760 759 761 761 758 753 758 757 762 749 750 762 755 754 757 757 754 765 767 753 747 750 753 752 750 751
794 793 791 789 788 786 785 784 783 783 783 783 783 783 778 761 760 761 759 758 757 757 758 755 752 752 757 752 755 764 763 785 758 753 749 761 786 761 748 748 754 750 750 751 752
796 794 793 791 789 787 786 784 783 782 782 782 783 783 777 759 760 758 758 757 757 756 755 755 755 761 762 777 788 776 799 787 766 744 748 760 773 754 744 747 752 752 752 751 753
797 795 793 791 789 788 786 783 782 781 781 782 782 788 765 761 758 758 758 758 757 756 757 759 767 780 781 790 816 798 789 780 771 738 737 762 767 753 748 747 752 752 751 754 761
798 796 794 792 789 787 785 783 783 784 779 775 767 764 754 755 756 756 756 757 757 761 778 767 789 799 786 774 766 766 771 773 755 741 753 765 762 759 751 750 757 756 755 762 764
799 796 794 791 789 787 786 784 776 774 778 763 760 756 754 753 758 754 756 763 764 778 768 778 790 766 757 756 759 763 770 773 758 749 758 763 768 758 753 750 751 758 757 762 764
800 797 794 791 788 786 784 781 773 771 780 761 753 753 755 753 756 756 752 754 763 770 768 780 763 748 751 759 763 763 773 775 774 762 759 766 780 765 748 743 748 750 753 757 762
799 796 793 790 789 785 780 775 773 772 798 772 762 754 752 748 761 751 749 754 756 763 758 757 750 755 761 763 761 775 763 767 772 786 806 772 821 777 755 756 753 757 757 759 762
798 794 792 791 788 784 777 775 773 773 826 763 757 748 746 757 755 756 749 751 766 764 761 775 767 769 770 770 760 774 764 772 774 789 793 788 810 783 758 767 765 761 760 761 762
796 792 790 789 787 779 776 775 775 806 815 765 751 758 761 753 753 750 752 748 748 760 757 763 749 760 767 760 758 757 766 773 777 794 824 787 798 794 769 767 765 760 762 765 769
792 789 788 788 783 777 777 776 809 816 758 768 762 754 758 762 760 759 765 776 789 799 796 769 767 761 759 772 765 770 795 827 823 822 823 774 779 796 773 772 777 780 781 783 782
788 785 784 783 780 780 778 793 816 778 771 749 755 755 765 759 762 763 770 789 780 786 800 801 798 770 765 775 783 784 787 829 835 837 825 783 811 808 777 775 776 779 782 784 787
787 783 781 777 778 780 788 811 796 774 766 766 761 770 770 763 767 769 775 786 785 787 809 809 799 768 768 769 776 788 807 783 808 805 827 810 798 784 777 780 780 782 783 786 789
788 783 776 774 777 779 796 801 779 762 764 764 782 771 784 774 777 777 781 780 785 783 786 796 816 778 769 765 769 780 778 820 826 835 832 817 818 821 804 797 793 793 796 794 795
789 786 771 772 775 783 806 788 768 763 766 776 781 780 779 783 780 782 786 791 786 789 788 798 806 803 783 789 795 797 806 807 815 824 846 851 834 799 809 799 804 803 804 805 806
797 796 771 771 789 788 793 775 771 766 764 769 772 777 783 783 788 788 796 796 789 791 808 810 811 827 807 784 775 782 792 801 849 834 836 849 848 796 798 807 809 813 812 813 813
806 789 771 770 797 791 772 767 766 770 773 776 778 777 779 788 805 792 792 792 790 800 814 813 826 843 830 803 791 799 791 797 807 823 834 858 847 797 811 815 818 820 819 818 815
807 797 779 773 774 779 784 775 780 771 775 776 781 779 785 789 787 794 792 791 791 802 805 808 822 829 849 825 811 813 804 800 808 853 829 828 817 826 826 828 825 826 824 822 819
804 799 798 800 790 785 782 778 780 787 777 779 785 785 795 809 804 801 795 796 798 804 805 814 828 820 818 810 808 808 805 800 804 807 827 821 836 837 837 837 835 833 826 822 820
815 814 803 802 785 785 786 781 787 786 788 794 795 792 792 804 809 814 809 810 810 806 805 813 829 824 827 813 808 813 804 799 803 807 816 820 832 836 836 835 834 833 828 828 825
820 815 812 800 792 790 793 790 791 790 789 790 797 801 808 810 805 804 802 804 805 811 818 820 829 839 839 819 818 835 818 809 808 816 823 841 843 835 835 834 838 835 835 833 829